COSMOS 1275 DEB

Satellite information

Favourite Embed

Satellite Type and Status

DEBRISIN ORBIT

Key statistics

Satellite COSMOS 1275 DEB at a glance.

Uptime

16049

Days in orbit

Revolutions

≈ 14.2

Per day

Orbit

LEO

Low Earth Orbit

Inclination

82.8

Latest

Satellite identification and parameters

Extended collection of information and parameters for COSMOS 1275 DEB.

Object identification

Identified? True

Debris? True

Object name: COSMOS 1275 DEB

International designator: 1981-053NM

Object number (NORAD): 39951

Object ID (CCSDS): 39951

Country: COMMONWEALTH OF INDEPENDENT STATES (CIS)

Current information (Y/N): Y

RCS size: SMALL

Orbital parameters

Period: 101.662 minutes

Inclination: 82.8235 deg

SMA: 7215.5 km

Apoapsis: 877.765 km

Periapsis: 796.964 km

RAAN: 160.9868 deg

Eccentricy: 0.0055991

Argument of periapsis: 313.0104 deg

Mean anomaly: 46.639 deg

Mean motion: 14.16456196 rev/day

Mean motion (dot): 0.00003839 rev/day2

B* drag term: 0.0018941 1/REarth

Two-line elements (TLE)

Creation date: May 12, 2025, 7:41 p.m.

Reference frame: TEME

Reference center: EARTH

Epoch: May 12, 2025, 8:26 a.m. UTC

TLE line 0: 0 COSMOS 1275 DEB

TLE line 1: 1 39951U 81053NM 25132.35177077 .00003839 00000-0 18941-2 0 9992

TLE line 2: 2 39951 82.8235 160.9868 0055991 313.0104 46.6390 14.16456196560345

Live tracking on map

Real-time ground track for satellite COSMOS 1275 DEB.

In-orbit conjunctions

A list of the most updated potential collisions computed for object COSMOS 1275 DEB.

Target Orbit TCA Probability of collision Miss distance Type
NOAA 13 SSO 2025-03-03 20:53:36 0.0001669219 241.0 (m) PAYLOAD

Associated space launch

Navigation satellite providing location information for the Tsiklon-B navigation system

COSMOS 1275 DEB was lifted into orbit during the mission ‘Kosmos-3M | Parus 27’, on board a Kosmos-3M space rocket.

The launch took place on June 4, 1981, 3:41 p.m. from 132/2.

For more information about the launch, click the button.

Launch to space Kosmos-3M | Parus 27
Kosmos-3M | Parus 27

Agency: N/A

Status: Launch Successful

Launch date: June 4, 1981, 3:41 p.m. UTC

Rocket: Kosmos-3M

Launch pad: 132/2

Location: Plesetsk Cosmodrome, Russian Federation

...

Latest news about this satellite

There are no fresh news available about this satellite. Check back as we update our databases every day.


Newsletter sign-up

Weekly statistics, charts and insights to help you stay on top of the space industry.